Regional Weather Roundup
Issued by NWS

Home | Current Version | Previous Version | Text Only | Print | Product List | Glossary Off
Versions: 1 2 3 4 5 6 7 8 9 10 11 12 13 14 15 16 17 18 19 20 21 22 23 24 25 26 27

000
ASUS45 KTFX 221210
RWRMT
MONTANA REGIONAL WEATHER ROUNDUP
NATIONAL WEATHER SERVICE GREAT FALLS MT
600 AM MDT WED MAR 22 2017

NOTE: "FAIR" INDICATES FEW OR NO CLOUDS BELOW 12000 FEET WITH NO
SIGNIFICANT WEATHER AND/OR OBSTRUCTIONS TO VISIBILITY.

MTZ001>007-043-221300-
WEST OF THE DIVIDE

CITY           SKY/WX    TMP DP  RH WIND       PRES   REMARKS
KALISPELL      MOCLDY    36  35  96 CALM      29.81R FOG
MISSOULA       MOCLDY    39  38  96 E5        29.86R
BUTTE          CLOUDY    35  32  88 CALM      29.87R
MULLAN PASS    MOCLDY    32  32 100 VRB5      29.80S
ANACONDA         N/A     32  32 100 CALM      29.86R VSB 1/2
DEER LODGE       N/A     34  34 100 CALM      29.89R
EUREKA           N/A     36  34  93 CALM      29.79S
HAMILTON         N/A     39  36  87 CALM      29.86R
PLAINS           N/A     39  32  76 CALM      29.85
RONAN            N/A     41  39  92 W1        29.89R
THOMPSON FALLS   N/A     36  35  96 CALM      29.90R VSB 1
$$

MTZ008-052>055-221300-
SOUTHWEST MONTANA

CITY           SKY/WX    TMP DP  RH WIND       PRES   REMARKS
BOZEMAN        PTCLDY    35  34  96 NW6       29.85R WCI  30
DILLON         CLOUDY    38  33  82 S8        29.86R
W YELLOWSTONE  CLOUDY    37  36  93 CALM      29.94R
ENNIS          CLOUDY    41  37  87 S7        29.90R
THREE FORKS      N/A     35   5  28 CALM      29.86S
$$

MTZ009-010-012-014-046-048-049-054-221300-
EAST SLOPES AND CENTRAL MONTANA

CITY           SKY/WX    TMP DP  RH WIND       PRES   REMARKS
CUT BANK       MOCLDY    40  33  76 W17       29.70R
GREAT FALLS    PTCLDY    43  33  68 SW10      29.74R
HELENA         PTCLDY    38  33  82 S5        29.83R
AUGUSTA          N/A     40  32  74 W12       29.74R
BOWMANS CRNR     N/A     38  33  81 SW10      29.75R WCI  31
CHOTEAU          N/A     43  34  70 CALM      29.75R
CONRAD           N/A     32  32 100 W2        29.78R
FAIRFIELD        N/A     40  34  79 S18       29.74R
POWER            N/A     39  33  79 W13       29.74R WCI  31
RAYNESFORD       N/A     47  36  66 SW7       29.76R
$$

MTZ011-013-016-021-045-047-050-051-221300-
NORTH CENTRAL MONTANA

CITY           SKY/WX    TMP DP  RH WIND       PRES   REMARKS
HAVRE          CLOUDY    31  30  96 CALM      29.74R
LEWISTOWN      CLOUDY    34  31  88 SE13      29.73F WCI  25
N BAR RANCH    CLOUDY    41  36  81 VRB5      29.77R
CHINOOK          N/A     36  34  93 E7        29.74F WCI  30
DENTON         MOCLDY    37  34  87 E3        29.70S
FORT BENTON      N/A     37  34  87 N8        29.74R WCI  31
GEYSER         MOCLDY    43  36  76 W22G30    29.72S
GRASS RANGE    MOCLDY    33  33 100 E5        29.72R
STANFORD       MOCLDY    45  34  65 NW12      29.73R
WINIFRED       FOG       32 N/A N/A E9        29.71F VSB 3/8 WCI  24
$$

MTZ017>020-022>027-061-062-221300-
NORTHEAST MONTANA

CITY           SKY/WX    TMP DP  RH WIND       PRES   REMARKS
GLASGOW        CLOUDY    32  27  81 SE14      29.84S WCI  22
JORDAN           N/A     34  30  85 S9        29.83R WCI  27
SIDNEY         CLOUDY   N/A N/A N/A SE18      29.95F
WOLF POINT     CLOUDY    34  26  72 SE9       29.89F WCI  27
MALTA          CLOUDY    34  32  93 SE8       29.80R WCI  27
PLENTYWOOD       N/A     27  21  80 SE16      29.94S WCI  14
POPLAR           N/A     30  25  80 SE10      29.91F WCI  21
SCOBEY           N/A     30  18  61 SE14      29.86  WCI  19
$$

MTZ028>42-056>058-221300-
SOUTHCENTRAL AND SOUTHEAST MONTANA

CITY           SKY/WX    TMP DP  RH WIND       PRES   REMARKS
BAKER          CLOUDY    29  25  85 SE30G40   29.90F WCI  13
BILLINGS       FOG       37  36  96 W10       29.83R VSB 1/8 WCI  30
LIVINGSTON     CLOUDY    33  30  88 SW6       29.83F WCI  28
MILES CITY     CLOUDY    33  29  85 SE14      29.83F WCI  23
BIG TIMBER     CLEAR     39  36  87 SW9G17    29.84R
EKALAKA          N/A     28  25  89 E22       29.82  WCI  14
FORSYTH          N/A     32  32 100 E3        29.82S
HARLOWTON      MOCLDY    34  31  90 CALM      29.78F
LAUREL           N/A     37  34  89 W1        29.83R VSB 0
$$

REGIONAL REPORTS...DAKOTAS

CITY           SKY/WX    TMP DP  RH WIND       PRES   REMARKS
WILLISTON      CLOUDY    30  22  72 SE10G21   30.00F WCI  21
MINOT          CLOUDY    24  18  77 SE17G26   30.15F WCI  11
DICKINSON      CLOUDY    26  19  74 SE25G36   29.99F WCI  11
BEACH            N/A    N/A N/A N/A MISG        N/A
TIOGA          CLOUDY    23  23 100 SE30G38   30.03F WCI   5
WATFORD CITY   CLOUDY    28  21  74 SE15G23   30.01F WCI  17
BISMARCK       CLOUDY    26  18  71 SE22      30.20F WCI  12
GRAND FORKS    CLOUDY    20   7  57 SE13      30.44F WCI   7
FARGO          CLOUDY    20   8  60 SE12      30.46F WCI   8
BUFFALO SD       N/A     29  27  92 SE22      29.87F WCI  15
RAPID CITY     CLOUDY    32  30  92 S16       29.96F WCI  21
$$

REGIONAL REPORTS...WYOMING/IDAHO/WASHINGTON

CITY           SKY/WX    TMP DP  RH WIND       PRES   REMARKS
GILLETTE       CLOUDY    33  30  88 S25G32    29.84F WCI  20
SHERIDAN       CLOUDY    34  33  96 NW7       29.78F WCI  28
BUFFALO WY     CLOUDY    45  36  70 S18       29.77F
CODY           CLOUDY    48  36  63 SW10      29.83R
YELLOWSTONE LA   N/A     32  32 100 CALM      29.99R
IDAHO FALLS    PTCLDY    40  39  97 SW8       29.92F
SALMON         CLEAR     36  30  80 SE5       29.89R
BOISE          MOCLDY    45  38  76 SE9       29.88F
SPOKANE        CLOUDY    41  38  89 SW7       29.82S
$$

REGIONAL REPORTS...ALBERTA

CITY           SKY/WX    TMP DP  RH WIND       PRES   REMARKS
EDMONTON       CLEAR     28  21  74 E9        29.63F WCI  20
CALGARY        MOCLDY    36  28  75 SW6       29.56R WCI  31
LETHBRIDGE     PTCLDY    41  36  81 SW16      29.61S
MEDICINE HAT   CLOUDY    39  32  75 S14G21    29.66F WCI  31
WATERTON GATE    N/A     39  32  75 SW10        N/A
CARDSTON         N/A     41  34  75 SW6         N/A
MILK RIVER       N/A     34  32  93 S8          N/A  WCI  27
$$

REGIONAL REPORTS...SASKATCHEWAN

CITY           SKY/WX    TMP DP  RH WIND       PRES   REMARKS
SWIFT CURRENT  CLOUDY    32  30  93 S17G23    29.74F WCI  21
REGINA         CLOUDY    21  16  79 SE23G32   29.98F WCI   5
SASKATOON      CLOUDY    25  18  74 SE18      29.92F WCI  11
CYPRESS HILLS    N/A     28  27  93 S13         N/A  WCI  18
VAL MARIE        N/A     32  30  93 S18         N/A  WCI  20
ROCKGLEN         N/A     28  25  86 S18G25      N/A  WCI  16
$$




USA.gov is the U.S. government's official web portal to all federal, state and local government web resources and services.